Wind_Speed
15 14 14 15 15 15 17 17 17 16 15 15 15 13 13 13 14 14 14 15 14 13 11 11 11 12 6 8 8 4 8 11 11 8 14 10 5 7 10 10 18 7 9 2 7 3 14
16 15 15 15 16 15 16 17 18 17 17 15 15 15 14 14 14 15 15 15 15 14 12 10 10 9 5 12 6 7 10 11 11 13 17 8 9 21 10 6 3 18 5 11 7 5 5
15 16 15 15 16 17 15 17 17 17 17 17 15 15 15 15 15 16 16 15 15 13 11 8 7 5 10 15 2 8 11 13 14 14 15 7 5 10 13 11 19 8 9 7 5 3 3
13 13 15 15 16 17 16 17 17 17 18 18 17 16 16 16 16 17 17 15 13 10 8 6 5 5 8 11 11 12 13 14 15 14 17 10 3 8 16 15 13 9 10 7 17 5 6
16 14 13 13 15 17 18 17 17 17 18 18 19 18 17 17 17 18 16 15 11 7 5 4 5 9 14 10 15 14 17 17 16 14 11 11 7 13 8 7 5 8 2 8 11 13 4
16 17 17 18 15 15 16 17 17 17 17 19 20 19 18 17 17 18 15 13 10 7 6 6 14 8 18 16 16 22 19 18 15 13 12 10 8 13 15 7 3 8 4 13 10 7 8
14 14 15 16 18 20 17 16 17 17 18 19 21 20 19 17 16 17 17 7 5 6 14 13 15 13 6 19 17 21 19 18 14 13 15 15 12 15 10 3 11 7 2 14 6 8 1
14 15 14 14 15 18 20 17 17 17 18 20 21 21 21 18 16 14 12 6 11 9 9 23 21 19 20 10 8 14 21 17 17 17 16 16 15 20 7 6 6 8 14 9 3 6 5
15 15 18 14 16 16 20 20 17 18 18 21 22 22 22 17 18 12 12 16 10 11 8 16 24 20 16 8 16 18 21 21 17 19 19 19 20 15 12 10 11 17 12 2 10 2 11
15 16 16 17 17 17 19 20 18 18 19 21 23 22 22 19 9 9 13 9 10 8 6 15 23 19 20 14 19 19 25 21 17 20 19 18 21 18 12 13 18 13 10 7 7 9 10
15 15 16 17 18 20 21 19 20 19 20 22 23 23 20 14 15 7 7 3 3 6 6 8 20 10 17 19 7 22 27 22 23 20 17 18 20 19 12 13 8 3 5 7 13 13 12
16 16 17 18 19 20 22 19 21 21 22 24 24 24 22 4 8 14 8 6 6 6 12 8 9 11 21 24 21 14 21 19 21 22 20 19 18 17 20 11 16 13 8 9 14 12 12
16 17 17 17 19 21 22 22 22 24 25 26 27 25 20 11 7 6 9 8 6 10 15 12 16 15 19 20 22 20 20 22 21 20 22 22 21 18 17 11 16 17 13 11 11 8 4
16 17 17 18 19 21 23 26 23 25 27 29 28 22 17 20 11 11 10 8 11 13 25 10 15 16 20 21 21 22 20 21 23 26 16 18 17 22 11 18 17 17 17 11 16 4 5
16 17 17 18 19 20 23 26 25 25 28 32 27 11 8 9 18 12 8 12 10 18 15 19 11 16 16 19 14 24 19 20 22 24 23 17 20 17 21 16 17 20 20 10 22 7 9
16 17 17 16 18 20 22 27 25 26 29 30 15 14 19 13 16 14 10 20 17 23 11 16 11 12 16 20 23 21 20 19 22 25 26 23 19 20 22 19 17 21 5 4 9 14 13
16 17 16 16 17 19 21 27 24 28 30 17 6 5 14 13 17 8 14 20 22 25 13 8 12 14 14 16 22 19 23 18 22 22 21 23 22 17 17 13 18 13 8 4 1 10 2
17 17 14 15 17 18 20 24 22 25 32 4 9 8 15 17 8 10 15 23 19 23 10 12 16 18 17 14 16 21 19 19 18 21 25 24 19 15 17 17 14 18 18 21 13 7 7
16 16 15 16 16 19 22 20 20 21 23 13 4 7 11 17 8 13 17 22 24 24 22 8 16 15 17 11 15 15 18 19 14 16 19 19 18 17 15 15 16 13 16 19 17 17 16
16 15 16 16 17 18 21 16 19 20 21 10 5 4 5 9 13 18 17 19 21 24 25 15 15 17 14 13 16 14 11 16 15 12 7 16 20 17 14 16 15 18 17 17 19 14 13
16 15 15 16 16 18 19 16 20 22 20 7 5 8 7 8 13 18 19 20 19 21 23 15 15 15 9 14 16 16 11 15 11 7 5 14 18 20 21 22 19 14 16 16 16 19 18
15 15 15 15 17 18 17 18 20 23 22 7 5 7 11 13 13 19 18 20 19 18 20 17 19 12 13 16 16 14 11 12 14 11 12 16 15 16 20 19 19 15 11 8 15 13 14
15 15 15 16 16 16 16 16 18 22 18 8 14 15 8 10 13 13 14 19 18 15 18 19 19 15 17 20 13 11 11 16 16 14 16 16 14 16 16 16 15 16 13 14 16 11 11
16 14 14 15 16 17 15 14 15 18 16 11 15 11 6 9 12 12 17 14 19 17 17 15 18 20 19 7 11 11 11 14 8 18 13 18 18 13 15 15 15 14 21 20 18 15 17
16 14 13 14 16 15 14 14 14 16 15 12 13 9 7 9 13 16 14 13 14 11 10 12 8 7 4 9 8 11 11 10 6 6 19 18 14 13 12 12 11 19 21 16 11 18 16
13 13 13 15 14 12 14 13 13 14 16 12 13 4 6 7 4 14 13 10 10 9 7 9 4 9 5 8 9 12 12 9 8 8 13 12 4 7 5 7 9 8 12 16 5 10 15
12 12 13 14 12 13 12 11 12 14 14 11 11 7 8 8 12 8 9 10 12 12 7 13 10 5 10 10 11 12 13 16 15 15 11 9 10 8 11 6 7 5 14 15 4 6 12
12 13 14 13 12 11 11 11 13 13 13 12 9 4 8 7 8 9 10 8 12 11 7 15 10 9 9 13 12 11 11 13 13 6 18 11 10 9 10 12 6 14 3 6 8 11 12
14 14 13 11 11 11 12 13 14 13 11 10 7 6 6 7 10 14 8 8 6 8 9 11 8 2 5 7 10 9 10 1 7 3 6 5 8 4 8 8 12 17 16 14 14 11 12
Wind_Direction
8 8 3 1 359 357 2 3 2 0 358 358 356 350 347 345 341 342 340 336 326 324 320 313 311 313 324 236 258 163 187 180 182 212 247 225 341 86 219 289 41 318 102 111 97 133 100
7 7 5 359 357 354 357 360 359 358 355 354 353 346 340 337 335 335 336 334 326 317 313 305 302 308 262 250 99 152 162 180 197 219 233 231 226 181 219 87 13 264 358 122 158 141 128
4 5 2 2 358 356 351 356 355 355 355 353 348 341 335 332 330 330 330 331 325 315 309 299 286 290 264 243 168 170 189 203 215 227 249 222 308 344 345 317 200 244 344 171 107 109 95
359 0 358 358 356 354 352 353 353 353 353 352 348 341 333 329 326 325 324 321 319 310 301 289 262 244 259 251 232 219 204 213 226 237 267 284 233 269 114 264 264 224 21 51 302 290 111
352 349 345 347 352 353 353 349 350 348 349 347 346 341 332 326 325 322 317 312 305 289 282 258 245 218 257 175 216 221 207 216 219 232 249 293 273 271 269 270 340 25 329 268 268 254 194
2 7 6 2 353 344 345 342 344 344 343 342 341 336 330 325 324 323 314 303 290 266 250 249 266 256 252 224 208 209 208 216 213 223 231 237 248 249 242 205 200 183 194 246 179 262 189
358 359 356 357 354 356 347 343 343 343 341 339 338 333 327 326 324 323 323 306 211 203 228 220 189 214 97 222 187 202 196 213 210 225 224 215 235 251 226 119 217 234 228 268 215 178 212
359 357 353 351 352 351 356 347 343 341 341 339 336 332 327 325 316 307 297 253 24 336 294 225 252 233 269 153 185 196 193 206 205 218 224 239 219 252 83 204 297 260 241 255 305 99 270
357 354 0 351 355 348 351 353 345 341 339 339 337 332 329 325 311 284 226 255 324 313 269 264 214 228 219 189 215 207 198 207 210 221 225 234 236 220 188 203 215 244 240 98 303 232 253
353 353 354 359 351 344 341 345 345 342 338 338 337 332 331 327 307 324 254 250 247 270 275 249 202 216 222 198 234 234 196 211 224 223 231 243 247 256 200 241 224 257 94 274 275 284 273
350 348 348 347 346 346 341 337 341 337 337 336 335 332 325 331 302 272 29 308 257 244 272 169 169 164 199 196 217 207 192 213 222 221 230 235 239 251 237 231 260 202 207 227 259 270 284
352 348 347 345 345 344 341 337 338 336 334 332 329 327 320 321 248 256 307 287 232 227 243 140 134 201 196 204 232 204 204 205 232 240 234 251 248 232 256 211 235 190 178 224 256 256 253
340 342 344 342 341 342 348 342 335 335 332 330 324 318 300 277 213 332 237 241 209 233 238 158 168 195 210 197 215 227 192 197 216 222 235 235 242 248 229 262 237 224 237 255 244 225 272
338 339 338 338 338 339 342 345 338 334 332 330 320 304 276 250 247 264 261 215 235 212 245 149 183 190 206 206 208 215 195 213 209 231 225 228 224 234 180 232 246 242 248 250 266 244 333
334 333 336 334 336 337 339 340 339 335 333 333 322 292 237 242 215 224 227 215 214 241 201 237 179 184 202 218 206 224 203 215 217 219 233 230 230 207 231 206 243 243 239 271 276 233 255
338 337 335 332 334 337 338 339 338 337 333 336 319 287 242 194 184 209 222 235 232 255 316 302 213 219 217 202 209 203 204 223 224 212 231 246 262 220 205 206 216 243 31 29 322 290 250
338 334 333 332 331 336 337 339 340 341 336 331 261 230 120 155 173 212 220 228 241 271 297 274 284 274 227 232 204 214 216 218 210 222 213 243 257 270 220 191 215 217 123 114 345 268 276
340 339 336 331 335 340 338 342 345 349 348 356 279 256 155 164 190 217 227 235 247 260 214 254 272 284 281 256 224 213 232 215 206 208 213 226 249 256 215 201 216 250 236 193 214 170 185
342 342 341 339 339 342 342 340 347 354 0 326 259 211 163 194 220 225 227 239 244 256 257 215 243 253 280 279 269 248 208 239 214 204 220 207 236 255 250 229 193 220 247 264 232 251 241
337 341 338 339 337 341 341 339 345 350 349 336 274 202 154 212 245 263 240 221 237 242 259 245 242 249 244 267 264 267 222 233 208 184 336 222 223 232 246 241 202 209 222 238 254 260 281
333 335 335 338 336 341 343 340 342 343 341 317 249 252 332 183 223 235 255 260 223 233 234 239 250 253 242 250 238 249 219 225 148 106 247 231 219 232 233 266 273 219 216 221 250 275 284
333 331 332 335 336 337 338 339 340 342 339 229 289 316 349 303 264 205 229 253 262 229 237 209 246 236 246 261 254 246 232 237 171 167 225 215 235 239 248 250 260 263 264 261 217 240 265
334 333 332 333 332 333 333 336 340 349 355 276 354 333 291 286 280 274 217 232 247 266 226 235 213 237 241 240 286 345 340 294 171 199 199 221 216 236 240 235 257 258 250 251 263 255 262
337 330 333 333 332 334 334 338 344 348 356 322 299 323 291 276 260 262 265 241 235 237 250 242 224 214 244 336 304 276 285 284 231 180 192 212 217 219 238 220 231 249 235 223 232 52 26
338 340 337 337 335 337 341 341 341 340 341 321 299 299 292 283 279 289 259 265 242 223 237 272 208 226 10 280 260 238 250 257 235 241 187 205 209 213 226 234 230 22 24 11 136 57 31
336 339 340 339 337 337 336 339 339 342 342 332 289 320 273 290 0 347 321 288 273 214 220 246 46 354 290 263 228 225 224 219 216 236 263 283 212 267 246 247 277 113 353 340 312 78 22
339 339 339 337 335 339 340 336 335 340 341 331 290 286 283 278 275 337 346 339 327 332 272 207 243 227 242 247 227 217 225 225 208 217 215 252 275 264 201 275 68 9 337 316 293 56 29
343 343 337 337 340 346 347 341 335 338 340 344 299 277 292 299 312 334 354 347 340 359 338 322 177 230 203 228 237 227 235 219 227 213 205 200 237 249 278 238 104 329 356 51 97 65 42
343 342 341 342 339 336 336 334 333 334 337 336 287 321 274 267 308 301 299 289 293 308 312 318 291 210 15 218 234 245 246 199 256 107 233 58 9 81 34 98 81 60 67 49 63 59 33
Height
829 827 825 822 820 817 814 812 809 807 805 803 801 798 796 794 792 790 788 785 782 781 781 778 777 775 774 768 753 748 749 749 751 753 751 738 745 778 790 751 739 747 732 729 727 727 731
830 828 826 823 821 817 815 812 809 807 805 802 800 798 796 793 791 789 787 785 782 779 779 778 777 776 776 771 748 748 750 750 751 752 743 736 742 748 757 760 771 739 731 731 731 732 733
831 829 827 824 821 818 815 813 810 807 805 802 800 797 795 792 790 788 786 784 781 778 777 777 777 777 770 754 747 749 750 750 750 747 739 735 737 740 739 755 738 733 760 738 736 736 748
831 830 827 825 822 819 815 813 810 807 804 801 799 797 794 792 789 786 783 782 780 777 776 775 776 777 764 742 748 748 748 748 748 745 741 738 741 742 773 750 742 746 767 807 762 742 743
832 829 827 824 822 819 815 812 810 807 804 801 799 796 794 791 788 784 781 779 777 777 775 774 775 772 757 745 746 745 745 744 745 743 741 739 741 744 740 751 770 779 829 801 790 742 745
832 830 827 824 821 819 816 813 810 807 804 801 798 795 793 789 786 783 779 776 775 774 774 776 773 771 746 740 737 741 741 742 741 741 742 743 745 752 744 755 810 799 806 780 777 767 747
833 830 828 825 822 819 815 812 809 806 803 800 797 793 790 788 785 782 778 776 773 772 769 752 744 740 726 732 731 736 738 740 739 743 759 744 762 764 748 754 757 756 770 769 753 740 751
833 830 828 825 822 819 815 812 808 805 802 799 795 791 788 785 783 781 779 771 756 758 758 743 740 734 729 730 738 733 736 743 746 760 748 754 765 737 734 740 754 756 761 758 742 737 747
833 830 827 824 822 819 816 812 808 805 802 798 794 790 786 783 778 776 773 765 761 760 758 733 728 731 729 733 737 735 732 736 745 755 751 759 742 723 740 745 762 764 755 761 761 745 737
833 830 827 824 821 818 815 811 808 804 801 797 793 788 785 780 780 772 765 761 762 760 767 733 722 724 724 729 739 721 725 734 740 752 747 745 727 729 736 750 744 758 743 755 757 765 783
832 829 826 823 820 817 813 810 806 803 799 796 792 788 784 784 778 770 762 761 760 758 791 698 714 708 714 729 714 723 718 729 745 740 742 749 738 738 740 740 731 756 742 751 754 756 762
833 830 826 823 819 816 811 808 805 801 797 793 790 787 783 781 778 769 767 763 762 779 777 722 714 721 727 724 724 712 719 723 725 738 730 733 712 722 728 724 727 729 749 750 747 756 786
832 829 826 823 819 816 811 807 802 798 795 791 786 782 781 782 769 766 766 764 779 775 709 720 725 720 724 729 731 719 732 741 752 766 760 738 734 716 715 736 723 729 747 781 785 789 795
830 827 824 821 818 814 810 806 801 796 791 785 780 777 772 769 770 770 766 769 778 729 719 686 702 713 731 721 728 723 730 744 734 738 747 759 765 730 716 736 744 737 743 773 803 800 791
828 826 823 820 817 813 809 805 800 795 789 782 773 768 767 762 765 768 765 774 748 717 694 701 699 717 727 717 719 724 729 735 728 730 751 749 748 709 714 717 728 741 750 734 759 766 777
827 824 821 818 815 811 807 803 797 793 787 782 776 766 754 756 762 764 765 759 729 701 693 692 711 708 723 719 724 724 725 718 723 715 716 726 749 709 708 709 719 730 744 786 782 794 796
825 822 820 817 814 810 806 801 796 790 782 778 775 757 746 754 760 759 759 745 730 703 697 711 711 709 706 705 707 717 721 710 706 710 710 720 727 722 704 723 736 739 778 796 811 792 797
824 821 818 815 812 809 805 800 796 790 780 776 767 754 746 752 759 749 748 736 723 709 696 708 707 705 702 696 699 706 712 705 689 698 721 715 723 737 724 702 704 717 729 737 770 780 763
823 820 817 813 810 807 803 799 796 792 788 785 761 739 747 749 754 743 733 729 720 715 706 708 715 702 693 701 711 694 695 680 683 694 710 710 732 750 736 715 707 727 723 722 723 726 750
821 818 815 812 809 805 802 798 795 792 789 786 764 736 741 744 735 729 724 724 724 707 704 700 704 698 701 708 693 699 694 683 678 688 702 699 719 733 748 730 712 731 726 721 726 743 748
820 817 814 810 807 804 800 796 793 789 787 786 761 733 717 737 737 733 726 715 714 717 700 699 707 704 707 717 707 702 689 684 683 702 700 701 728 721 719 711 707 711 719 720 732 729 744
818 815 812 809 806 802 799 795 791 787 781 779 757 741 734 724 709 718 726 719 708 704 702 711 715 703 706 712 700 702 692 687 697 697 706 699 728 719 729 711 709 719 708 709 714 719 725
816 813 810 807 804 801 798 794 790 785 780 763 755 753 746 736 720 712 711 712 708 696 693 693 700 706 707 700 683 682 673 674 677 697 707 711 720 730 744 718 720 736 716 714 711 707 712
814 811 809 806 803 800 797 793 790 787 784 782 771 764 755 742 727 714 704 699 703 700 702 690 688 701 693 686 683 681 680 673 670 680 685 710 714 718 734 723 762 711 684 689 704 715 711
813 809 807 805 801 798 795 793 789 787 784 782 775 767 758 748 727 714 706 701 697 694 699 695 685 687 691 696 707 713 708 701 692 681 685 683 699 722 735 735 718 717 706 709 704 740 725
811 808 806 803 801 798 795 792 789 786 783 779 773 769 765 756 731 728 720 706 708 701 706 699 693 694 697 704 711 730 732 716 720 710 684 683 695 709 719 741 754 736 711 700 697 762 732
810 807 805 802 799 797 794 792 789 786 783 780 774 771 768 757 738 734 730 735 717 709 707 704 704 709 704 713 719 722 721 699 722 724 720 715 714 721 732 743 748 729 719 711 744 770 738
809 806 803 800 797 795 793 791 788 785 782 779 772 770 769 758 743 739 734 738 734 727 725 711 707 709 711 723 717 707 707 699 704 701 708 720 728 727 721 737 776 736 730 746 747 743 745
808 805 802 799 797 794 792 790 787 784 782 780 774 770 768 766 757 748 744 744 743 741 738 720 712 706 708 709 704 696 701 698 700 726 698 741 721 729 736 757 748 742 747 744 744 753 754